{"data":{"norad_id":51855,"epoch":"2026-09-20T03:38:08.290176Z","epoch_age_seconds":82335,"freshness":"FRESH","line1":"1 51855U 22022D   26263.15148484  .00000928  00000+0  38614-4 0  9990","line2":"2 51855  53.1587 211.0497 0001268  84.6109 275.5038 15.34392601252535","mean_motion":15.34392601,"eccentricity":0.0001268,"inclination_deg":53.1587,"raan_deg":211.0497,"arg_perigee_deg":84.6109,"mean_anomaly_deg":275.5038,"bstar":3.8614e-5,"rev_number":25253,"period_min":93.848210624942,"perigee_km":461.85781035177,"apogee_km":463.59265301372,"semimajor_km":6840.8622316827,"source":"CELESTRAK","updated_at":"2026-09-20T09:00:39.944917Z"}}